Comanche, TX

1:38 PM CDT on March 28, 2017 (GMT -0500)
Comanche

Weather History for KMKN - October, 2013

Change the Weather History Date:

Thursday, October 10, 2013

  Actual Average (KSEP) Record (KSEP)
Temperature  
Mean Temperature 70 °F -  
Max Temperature 82 °F 78 °F 94 °F (1926)
Min Temperature 59 °F 52 °F 37 °F (1990)
Cooling Degree Days 6    
Growing Degree Days 20 (Base 50)    
Moisture  
Dew Point 59 °F    
Average Humidity 68    
Maximum Humidity 96    
Minimum Humidity 45    
Precipitation  
Precipitation 0.00 in - - ()
Sea Level Pressure  
Sea Level Pressure 29.97 in    
Wind  
Wind Speed 9 mph (SSE)    
Max Wind Speed 18 mph    
Max Gust Speed 28 mph    
Visibility 10 miles    
Events      
Averages and records for this station are not official NWS values.
T = Trace of Precipitation, MM = Missing Value Source: NWS Daily Summary

Daily Weather History Graph

Daily Weather History Graph

Search for Another Location

Airport or City:

Trip Planner

Search our weather history database for the weather conditions in past years. The results will help you decide how hot, cold, wet, or windy it might be!

Date:

Astronomy

Oct. 10, 2013 Rise Set
Actual Time 7:34 AM CDT 7:07 PM CDT
Civil Twilight 7:09 AM CDT 7:32 PM CDT
Nautical Twilight 6:41 AM CDT 8:00 PM CDT
Astronomical Twilight 6:13 AM CDT 8:28 PM CDT
Moon 1:14 PM CDT (10/10) 11:59 PM CDT (10/10)
Length of Visible Light 12h 22m
Length of Day
11h 33m
Waxing Crescent, 36% of the Moon is Illuminated
Oct 10
Waxing Crescent
Oct 11
First Quarter
Oct 18
Full
Oct 26
Last Quarter
Nov 3
New

Hourly Weather History & Observations

Time (CDT) Temp. Heat Index Dew Point Humidity Pressure Visibility Wind Dir Wind Speed Gust Speed Precip Events Conditions
12:15 AM 64.6 °F - 54.0 °F 68% 30.02 in 10.0 mi SSE 8.1 mph - N/A   Clear
12:35 AM 63.7 °F - 53.8 °F 70% 30.02 in 10.0 mi South 6.9 mph - N/A   Clear
12:55 AM 62.6 °F - 54.0 °F 73% 30.02 in 10.0 mi South 5.8 mph - N/A   Clear
1:15 AM 62.6 °F - 54.1 °F 74% 30.02 in 10.0 mi SSE 5.8 mph - N/A   Clear
1:35 AM 62.6 °F - 54.5 °F 75% 30.02 in 10.0 mi SSE 5.8 mph - N/A   Clear
1:55 AM 61.7 °F - 54.1 °F 76% 30.02 in 10.0 mi South 6.9 mph - N/A   Clear
2:15 AM 62.2 °F - 54.5 °F 76% 30.02 in 10.0 mi South 6.9 mph - N/A   Clear
2:35 AM 61.7 °F - 54.5 °F 77% 30.02 in 10.0 mi South 6.9 mph - N/A   Clear
2:55 AM 61.3 °F - 54.7 °F 79% 30.02 in 10.0 mi South 5.8 mph - N/A   Clear
3:15 AM 61.2 °F - 54.9 °F 80% 30.02 in 10.0 mi South 6.9 mph - N/A   Clear
3:35 AM 61.9 °F - 55.4 °F 79% 30.02 in 10.0 mi South 8.1 mph - N/A   Clear
3:55 AM 61.7 °F - 55.8 °F 81% 30.02 in 10.0 mi South 8.1 mph - N/A   Clear
4:15 AM 62.1 °F - 56.3 °F 81% 30.02 in 10.0 mi SSE 9.2 mph - N/A   Clear
4:35 AM 61.7 °F - 56.7 °F 84% 30.01 in 10.0 mi SSE 8.1 mph - N/A   Clear
4:55 AM 61.9 °F - 57.6 °F 86% 30.01 in 10.0 mi SSE 9.2 mph - N/A   Clear
5:15 AM 61.9 °F - 58.1 °F 87% 30.02 in 10.0 mi South 8.1 mph - N/A   Clear
5:35 AM 61.7 °F - 58.3 °F 89% 30.02 in 10.0 mi South 8.1 mph - N/A   Clear
5:55 AM 62.1 °F - 59.4 °F 91% 30.02 in 10.0 mi South 8.1 mph - N/A   Mostly Cloudy
6:15 AM 64.8 °F - 61.5 °F 89% 30.01 in 10.0 mi South 13.8 mph 20.7 mph N/A   Overcast
6:35 AM 65.3 °F - 61.0 °F 86% 30.01 in 10.0 mi South 10.4 mph - N/A   Scattered Clouds
6:55 AM 62.2 °F - 59.7 °F 91% 30.02 in 10.0 mi SSE 9.2 mph - N/A   Clear
7:15 AM 61.0 °F - 59.2 °F 94% 30.02 in 10.0 mi SSE 6.9 mph - N/A   Clear
7:35 AM 60.3 °F - 59.0 °F 96% 30.02 in 10.0 mi SE 4.6 mph - N/A   Clear
7:55 AM 59.9 °F - 58.6 °F 96% 30.03 in 10.0 mi ESE 4.6 mph - N/A   Clear
8:15 AM 59.2 °F - 58.1 °F 96% 30.03 in 10.0 mi ESE 3.5 mph - N/A   Clear
8:35 AM 61.0 °F - 59.7 °F 96% 30.04 in 10.0 mi SE 5.8 mph - N/A   Clear
8:55 AM 64.0 °F - 61.0 °F 90% 30.04 in 10.0 mi SE 6.9 mph - N/A   Clear
9:15 AM 67.1 °F - 61.7 °F 83% 30.04 in 10.0 mi SSE 8.1 mph - N/A   Clear
9:35 AM 69.4 °F - 62.4 °F 78% 30.05 in 10.0 mi South 9.2 mph - N/A   Scattered Clouds
9:55 AM 71.6 °F - 62.8 °F 74% 30.05 in 10.0 mi South 12.7 mph 16.1 mph N/A   Mostly Cloudy
10:15 AM 72.7 °F - 62.6 °F 71% 30.05 in 10.0 mi South 10.4 mph 18.4 mph N/A   Scattered Clouds
10:35 AM 72.5 °F - 62.4 °F 71% 30.04 in 10.0 mi SSE 12.7 mph 18.4 mph N/A   Mostly Cloudy
10:55 AM 73.4 °F - 62.2 °F 68% 30.04 in 10.0 mi South 13.8 mph 18.4 mph N/A   Overcast
11:15 AM 74.5 °F - 61.9 °F 65% 30.04 in 10.0 mi South 17.3 mph 24.2 mph N/A   Overcast
11:35 AM 75.6 °F - 61.9 °F 62% 30.03 in 10.0 mi South 17.3 mph 27.6 mph N/A   Mostly Cloudy
11:55 AM 77.0 °F - 61.5 °F 59% 30.03 in 10.0 mi South 16.1 mph 24.2 mph N/A   Mostly Cloudy
12:15 PM 76.6 °F - 61.2 °F 59% 30.03 in 10.0 mi South 16.1 mph 23.0 mph N/A   Overcast
12:35 PM 75.9 °F - 60.8 °F 59% 30.02 in 10.0 mi South 13.8 mph 21.9 mph N/A   Overcast
12:55 PM 78.1 °F - 61.2 °F 56% 30.01 in 10.0 mi South 18.4 mph 24.2 mph N/A   Mostly Cloudy
1:15 PM 78.6 °F - 61.2 °F 55% 30.00 in 10.0 mi South 16.1 mph 21.9 mph N/A   Scattered Clouds
1:35 PM 81.0 °F 81.7 °F 60.6 °F 50% 29.98 in 10.0 mi South 15.0 mph 21.9 mph N/A   Mostly Cloudy
1:55 PM 81.1 °F 81.8 °F 60.4 °F 49% 29.97 in 10.0 mi South 9.2 mph 20.7 mph N/A   Scattered Clouds
2:15 PM 81.1 °F 81.6 °F 59.7 °F 48% 29.96 in 10.0 mi SSE 13.8 mph 20.7 mph N/A   Scattered Clouds
2:35 PM 81.7 °F 81.9 °F 58.8 °F 46% 29.95 in 10.0 mi South 12.7 mph 21.9 mph N/A   Clear
2:55 PM 81.7 °F 81.9 °F 59.0 °F 46% 29.94 in 10.0 mi South 13.8 mph 24.2 mph N/A   Clear
3:15 PM 82.2 °F 82.4 °F 59.7 °F 46% 29.93 in 10.0 mi South 13.8 mph 24.2 mph N/A   Clear
3:35 PM 82.4 °F 82.6 °F 59.5 °F 46% 29.92 in 10.0 mi SSE 12.7 mph 21.9 mph N/A   Scattered Clouds
3:55 PM 82.2 °F 82.4 °F 59.5 °F 46% 29.92 in 10.0 mi SSE 17.3 mph 23.0 mph N/A   Clear
4:15 PM 82.4 °F 82.6 °F 59.7 °F 46% 29.92 in 10.0 mi SSE 13.8 mph 21.9 mph N/A   Clear
4:35 PM 82.6 °F 82.8 °F 59.9 °F 46% 29.91 in 10.0 mi SSE 13.8 mph 19.6 mph N/A   Clear
4:55 PM 82.4 °F 82.5 °F 59.4 °F 45% 29.91 in 10.0 mi South 13.8 mph 21.9 mph N/A   Clear
5:15 PM 81.9 °F 82.1 °F 59.2 °F 46% 29.90 in 10.0 mi SSE 12.7 mph 21.9 mph N/A   Clear
5:35 PM 81.5 °F 81.7 °F 59.0 °F 46% 29.89 in 10.0 mi SSE 16.1 mph 23.0 mph N/A   Clear
5:55 PM 81.1 °F 81.5 °F 59.2 °F 47% 29.89 in 10.0 mi SSE 18.4 mph 23.0 mph N/A   Clear
6:15 PM 80.4 °F 81.1 °F 59.4 °F 49% 29.89 in 10.0 mi SSE 16.1 mph 21.9 mph N/A   Clear
6:35 PM 79.2 °F - 59.4 °F 51% 29.89 in 10.0 mi SSE 15.0 mph 21.9 mph N/A   Clear
6:55 PM 77.9 °F - 59.2 °F 52% 29.89 in 10.0 mi SSE 12.7 mph 18.4 mph N/A   Clear
7:15 PM 76.8 °F - 59.2 °F 54% 29.88 in 10.0 mi SSE 13.8 mph - N/A   Clear
7:35 PM 76.1 °F - 59.2 °F 56% 29.88 in 10.0 mi SSE 12.7 mph - N/A   Clear
7:55 PM 74.8 °F - 59.4 °F 58% 29.89 in 10.0 mi SSE 12.7 mph 16.1 mph N/A   Clear
8:15 PM 74.1 °F - 59.9 °F 61% 29.89 in 10.0 mi SSE 10.4 mph - N/A   Clear
8:35 PM 73.8 °F - 59.9 °F 62% 29.89 in 10.0 mi SSE 10.4 mph - N/A   Clear
8:55 PM 73.2 °F - 59.9 °F 63% 29.89 in 10.0 mi SSE 10.4 mph 16.1 mph N/A   Clear
9:15 PM 72.9 °F - 59.9 °F 64% 29.90 in 10.0 mi SSE 10.4 mph - N/A   Clear
9:35 PM 72.3 °F - 59.9 °F 65% 29.90 in 10.0 mi SSE 9.2 mph - N/A   Clear
9:55 PM 71.6 °F - 59.7 °F 66% 29.90 in 10.0 mi SSE 9.2 mph - N/A   Clear
10:15 PM 71.1 °F - 59.5 °F 67% 29.90 in 10.0 mi SSE 9.2 mph - N/A   Clear
10:35 PM 70.7 °F - 59.4 °F 67% 29.90 in 10.0 mi SE 6.9 mph - N/A   Clear
10:55 PM 70.0 °F - 59.5 °F 69% 29.90 in 10.0 mi SSE 8.1 mph - N/A   Clear
11:15 PM 69.8 °F - 59.9 °F 71% 29.89 in 10.0 mi SSE 9.2 mph - N/A   Clear
11:35 PM 69.6 °F - 59.9 °F 71% 29.89 in 10.0 mi SSE 9.2 mph - N/A   Clear
11:55 PM 69.4 °F - 59.9 °F 72% 29.89 in 10.0 mi SSE 8.1 mph - N/A   Clear